CES826 ZULS-ZGGG

Flight info

Callsign CES826
Flight time N/A
Altitude 39100
Route K0900S1190 DCT LXA W500 DM W9 CZH B213 CTU W237 IDBOR B330 KWE W181 DUDIT A599 GYA GYA8
Aircraft B77W/H-SDE1E2E3FGHIJ2J3J4J5M1RWXY/LB1D1

Departure

Time 2026-04-21 00:06
Airport Lhasa Gonggar International Airport (ZULS)

Arrival

Time N/A
Airport Guangzhou Baiyun International Airport (ZGGG)
Time Latitude Longitude Altitude Speed Heading
2026-04-20 23:42 29.29438 90.90071 11552 ft 0 kts 181°
2026-04-20 23:57 29.29444 90.90071 11554 ft 2 kts 178°
2026-04-20 23:57 29.29463 90.90071 11560 ft 3 kts 181°
2026-04-20 23:57 29.29483 90.90072 11552 ft 3 kts 188°
2026-04-20 23:58 29.29503 90.90076 11552 ft 3 kts 196°
2026-04-20 23:58 29.29522 90.90084 11554 ft 3 kts 204°
2026-04-20 23:58 29.29540 90.90094 11554 ft 2 kts 211°
2026-04-20 23:58 29.29548 90.90099 11554 ft 1 kts 212°
2026-04-20 23:59 29.29549 90.90100 11554 ft 0 kts 212°
2026-04-21 00:01 29.29530 90.90063 11560 ft 12 kts 254°
2026-04-21 00:01 29.29525 90.89963 11571 ft 14 kts 269°
2026-04-21 00:02 29.29524 90.89839 11572 ft 16 kts 269°
2026-04-21 00:02 29.29522 90.89713 11562 ft 16 kts 269°
2026-04-21 00:02 29.29520 90.89587 11559 ft 16 kts 269°
2026-04-21 00:02 29.29518 90.89461 11575 ft 16 kts 269°
2026-04-21 00:03 29.29516 90.89351 11574 ft 11 kts 269°
2026-04-21 00:03 29.29515 90.89260 11568 ft 11 kts 272°
2026-04-21 00:03 29.29555 90.89201 11554 ft 9 kts 343°
2026-04-21 00:03 29.29616 90.89196 11561 ft 9 kts 358°
2026-04-21 00:04 29.29679 90.89195 11565 ft 9 kts
2026-04-21 00:04 29.29741 90.89196 11564 ft 8 kts
2026-04-21 00:04 29.29775 90.89228 11562 ft 7 kts 64°
2026-04-21 00:04 29.29778 90.89251 11559 ft 0 kts 89°
2026-04-21 00:05 29.29778 90.89281 11559 ft 17 kts 89°
2026-04-21 00:05 29.29784 90.89639 11574 ft 72 kts 89°
2026-04-21 00:05 29.29796 90.90417 11559 ft 122 kts 89°
2026-04-21 00:05 29.29814 90.91560 11572 ft 163 kts 89°
2026-04-21 00:06 29.29834 90.92980 11550 ft 192 kts 89°
2026-04-21 00:06 29.29850 90.94516 11776 ft 194 kts 89°
2026-04-21 00:06 29.29868 90.96088 12015 ft 199 kts 89°
2026-04-21 00:06 29.29880 90.97661 12334 ft 199 kts 90°
2026-04-21 00:07 29.29880 90.99236 12825 ft 192 kts 90°
2026-04-21 00:07 29.29857 91.00764 13091 ft 193 kts 92°
2026-04-21 00:07 29.29792 91.02326 13296 ft 206 kts 95°
2026-04-21 00:07 29.29656 91.04022 13469 ft 223 kts 95°
2026-04-21 00:08 29.29527 91.05865 13681 ft 239 kts 95°
2026-04-21 00:08 29.29390 91.07804 14022 ft 252 kts 95°
2026-04-21 00:08 29.29240 91.09909 14196 ft 278 kts 94°
2026-04-21 00:08 29.29100 91.12218 14427 ft 305 kts 94°
2026-04-21 00:09 29.28958 91.14742 14681 ft 332 kts 94°
2026-04-21 00:09 29.28797 91.17502 14874 ft 362 kts 94°
2026-04-21 00:09 29.28625 91.20489 15049 ft 390 kts 94°
2026-04-21 00:09 29.28446 91.23670 15430 ft 408 kts 94°
2026-04-21 00:10 29.28264 91.26954 16077 ft 418 kts 94°
2026-04-21 00:10 29.28080 91.30305 16830 ft 425 kts 94°
2026-04-21 00:10 29.27895 91.33704 17613 ft 431 kts 94°
2026-04-21 00:10 29.27707 91.37154 18339 ft 437 kts 94°
2026-04-21 00:11 29.27516 91.40658 19015 ft 443 kts 94°
2026-04-21 00:11 29.27321 91.44199 19708 ft 448 kts 94°
2026-04-21 00:11 29.27123 91.47780 20413 ft 454 kts 94°
2026-04-21 00:11 29.26921 91.51406 21108 ft 459 kts 94°
2026-04-21 00:12 29.26717 91.55075 21760 ft 465 kts 94°
2026-04-21 00:12 29.26508 91.58794 22392 ft 471 kts 94°
2026-04-21 00:12 29.26295 91.62560 23020 ft 477 kts 94°
2026-04-21 00:12 29.26079 91.66366 23623 ft 482 kts 94°
2026-04-21 00:13 29.25860 91.70218 24126 ft 488 kts 94°
2026-04-21 00:13 29.25637 91.74123 24613 ft 494 kts 95°
2026-04-21 00:13 29.25416 91.78072 25102 ft 500 kts 94°
2026-04-21 00:13 29.25276 91.82066 25598 ft 505 kts 92°
2026-04-21 00:14 29.25194 91.86111 26084 ft 511 kts 92°
2026-04-21 00:14 29.25127 91.90205 26563 ft 517 kts 92°
2026-04-21 00:14 29.25051 91.94351 26901 ft 525 kts 92°
2026-04-21 00:14 29.24959 91.98508 27271 ft 532 kts 93°
2026-04-21 00:15 29.24852 92.02752 27784 ft 536 kts 93°
2026-04-21 00:15 29.24745 92.07032 28290 ft 539 kts 93°
2026-04-21 00:15 29.24633 92.11339 28719 ft 544 kts 93°
2026-04-21 00:15 29.24519 92.15696 29110 ft 549 kts 94°
2026-04-21 00:16 29.24400 92.20092 29431 ft 554 kts 94°
2026-04-21 00:16 29.24277 92.24519 29780 ft 558 kts 94°
2026-04-21 00:16 29.24154 92.28974 30131 ft 561 kts 94°
2026-04-21 00:16 29.24028 92.33447 30482 ft 564 kts 94°
2026-04-21 00:17 29.23902 92.37932 30956 ft 563 kts 94°
2026-04-21 00:17 29.23775 92.42404 31489 ft 562 kts 94°
2026-04-21 00:17 29.23646 92.46876 31835 ft 562 kts 94°
2026-04-21 00:17 29.23542 92.51353 32165 ft 563 kts 91°
2026-04-21 00:18 29.23876 92.55834 32510 ft 568 kts 81°
2026-04-21 00:18 29.24746 92.60182 32907 ft 568 kts 73°
2026-04-21 00:18 29.26082 92.64441 33330 ft 568 kts 65°
2026-04-21 00:18 29.27923 92.68430 33686 ft 567 kts 58°
2026-04-21 00:19 29.29937 92.72321 33943 ft 569 kts 57°
2026-04-21 00:19 29.31963 92.76193 34442 ft 565 kts 57°
2026-04-21 00:19 29.33971 92.80075 34779 ft 568 kts 57°
2026-04-21 00:19 29.35957 92.84008 34983 ft 572 kts 58°
2026-04-21 00:20 29.37926 92.87981 35292 ft 573 kts 58°
2026-04-21 00:20 29.39885 92.91962 35518 ft 574 kts 58°
2026-04-21 00:20 29.41842 92.95931 35981 ft 572 kts 59°
2026-04-21 00:21 29.45774 93.03900 36450 ft 570 kts 57°
2026-04-21 00:21 29.47724 93.07861 36794 ft 572 kts 58°
2026-04-21 00:21 29.49687 93.11862 36916 ft 577 kts 58°
2026-04-21 00:21 29.51644 93.15865 37427 ft 571 kts 58°
2026-04-21 00:22 29.53583 93.19828 37844 ft 570 kts 57°
2026-04-21 00:22 29.55531 93.23804 38062 ft 572 kts 57°
2026-04-21 00:22 29.57481 93.27793 38255 ft 574 kts 57°
2026-04-21 00:22 29.59434 93.31796 38465 ft 576 kts 57°
2026-04-21 00:23 29.61394 93.35812 38742 ft 575 kts 58°
2026-04-21 00:23 29.63344 93.39814 39068 ft 572 kts 57°
2026-04-21 00:23 29.65286 93.43794 39108 ft 571 kts 58°
2026-04-21 00:24 29.69133 93.51697 39120 ft 572 kts 58°
2026-04-21 00:24 29.73008 93.59712 39171 ft 576 kts 58°
2026-04-21 00:25 29.76930 93.67821 39180 ft 583 kts 57°
2026-04-21 00:25 29.80840 93.75909 39135 ft 573 kts 57°
2026-04-21 00:26 29.84708 93.83928 39166 ft 576 kts 59°
2026-04-21 00:26 29.88432 93.92130 39136 ft 579 kts 65°
2026-04-21 00:27 29.91085 94.00853 39159 ft 576 kts 77°
2026-04-21 00:27 29.92820 94.09878 39169 ft 579 kts 78°
2026-04-21 00:28 29.94523 94.18984 39170 ft 582 kts 78°
2026-04-21 00:28 29.96181 94.28044 39097 ft 572 kts 78°
2026-04-21 00:28 29.97080 94.32505 39198 ft 571 kts 77°
2026-04-21 00:29 29.97994 94.36980 39175 ft 576 kts 77°
2026-04-21 00:29 29.99831 94.46022 39201 ft 580 kts 77°
2026-04-21 00:30 30.01576 94.55075 39162 ft 583 kts 79°
2026-04-21 00:30 30.03316 94.64180 39223 ft 579 kts 78°
2026-04-21 00:31 30.05066 94.73248 39195 ft 579 kts 78°
2026-04-21 00:31 30.06803 94.82314 39144 ft 576 kts 78°
2026-04-21 00:32 30.08539 94.91352 39196 ft 579 kts 78°
2026-04-21 00:32 30.10260 95.00425 39187 ft 577 kts 77°
2026-04-21 00:33 30.12047 95.09439 39190 ft 574 kts 77°
2026-04-21 00:33 30.13858 95.18446 39174 ft 577 kts 77°
2026-04-21 00:34 30.15663 95.27494 39082 ft 578 kts 77°
2026-04-21 00:34 30.17430 95.36509 39100 ft 572 kts 79°
2026-04-21 00:34 30.18200 95.41000 39201 ft 569 kts 78°
2026-04-21 00:35 30.19065 95.45478 39242 ft 574 kts 77°
2026-04-21 00:35 30.20939 95.54534 39150 ft 581 kts 77°
2026-04-21 00:36 30.22742 95.63572 39175 ft 576 kts 77°
2026-04-21 00:36 30.24491 95.72632 39163 ft 579 kts 78°
2026-04-21 00:37 30.26227 95.81696 39194 ft 581 kts 78°
2026-04-21 00:37 30.27992 95.90847 39160 ft 581 kts 77°
2026-04-21 00:38 30.29732 95.99889 39151 ft 572 kts 78°
2026-04-21 00:38 30.31485 96.08863 39153 ft 572 kts 77°
2026-04-21 00:39 30.33311 96.17887 39132 ft 580 kts 76°
2026-04-21 00:39 30.35154 96.27020 39145 ft 585 kts 77°
2026-04-21 00:40 30.36665 96.34600 39111 ft 577 kts 77°
2026-04-21 00:40 30.38775 96.45165 39193 ft 575 kts 76°
2026-04-21 00:41 30.40183 96.52710 39133 ft 577 kts 77°
2026-04-21 00:41 30.41992 96.61798 39175 ft 583 kts 76°
2026-04-21 00:42 30.43837 96.70984 39142 ft 585 kts 76°
2026-04-21 00:42 30.45624 96.80138 39120 ft 580 kts 77°
2026-04-21 00:43 30.47387 96.89266 39136 ft 580 kts 77°
2026-04-21 00:43 30.49158 96.98381 39115 ft 580 kts 76°
2026-04-21 00:44 30.50903 97.07506 39116 ft 579 kts 78°
2026-04-21 00:44 30.51760 97.16734 39124 ft 573 kts 90°
2026-04-21 00:45 30.50942 97.30532 39099 ft 573 kts 99°
2026-04-21 00:45 30.50092 97.39730 39094 ft 574 kts 99°
2026-04-21 00:46 30.49299 97.48901 39097 ft 577 kts 99°
2026-04-21 00:46 30.48519 97.58175 39081 ft 579 kts 99°
2026-04-21 00:47 30.47735 97.67498 39068 ft 582 kts 99°
2026-04-21 00:47 30.46943 97.76790 39057 ft 577 kts 99°
2026-04-21 00:48 30.46137 97.86033 39041 ft 575 kts 99°
2026-04-21 00:48 30.45332 97.95214 39088 ft 571 kts 99°
2026-04-21 00:49 30.44521 98.04442 39098 ft 580 kts 99°
2026-04-21 00:49 30.43696 98.13774 39060 ft 582 kts 99°
2026-04-21 00:50 30.42874 98.23105 39049 ft 581 kts 99°
2026-04-21 00:50 30.42157 98.32368 39063 ft 575 kts 98°
2026-04-21 00:51 30.41463 98.41606 39066 ft 576 kts 98°
2026-04-21 00:51 30.40748 98.50858 39071 ft 578 kts 98°
2026-04-21 00:52 30.40010 98.60143 39076 ft 579 kts 99°
2026-04-21 00:52 30.39270 98.69397 39043 ft 582 kts 98°
2026-04-21 00:53 30.39044 98.78698 39033 ft 571 kts 79°
2026-04-21 00:53 30.39366 98.83253 39029 ft 569 kts 99°
2026-04-21 00:53 30.38693 98.87734 39041 ft 562 kts 107°
2026-04-21 00:54 30.37790 98.92148 39157 ft 566 kts 107°
2026-04-21 00:54 30.36999 98.96663 39053 ft 578 kts 101°
2026-04-21 00:54 30.36028 99.06016 39078 ft 588 kts 97°
2026-04-21 00:55 30.35384 99.15475 39019 ft 589 kts 97°
2026-04-21 00:55 30.34691 99.24860 39110 ft 583 kts 98°
2026-04-21 00:56 30.33913 99.34167 39068 ft 579 kts 97°
2026-04-21 00:56 30.33106 99.43423 39117 ft 578 kts 98°
2026-04-21 00:57 30.32293 99.52710 39085 ft 582 kts 98°
2026-04-21 00:57 30.31479 99.62038 39087 ft 583 kts 98°
2026-04-21 00:58 30.30650 99.71391 39075 ft 584 kts 98°
2026-04-21 00:58 30.29839 99.80645 39080 ft 581 kts 97°
2026-04-21 00:59 30.29007 99.89965 39031 ft 582 kts 98°
2026-04-21 00:59 30.28205 99.99288 39053 ft 586 kts 98°
2026-04-21 01:00 30.27377 100.08676 39026 ft 585 kts 97°
2026-04-21 01:00 30.26705 100.18038 39007 ft 583 kts 96°
2026-04-21 01:01 30.26021 100.27338 38971 ft 577 kts 96°
2026-04-21 01:01 30.25218 100.36547 38965 ft 576 kts 97°
2026-04-21 01:02 30.24542 100.45848 38995 ft 586 kts 96°
2026-04-21 01:02 30.23871 100.55277 39008 ft 590 kts 97°
2026-04-21 01:03 30.23117 100.64731 38950 ft 589 kts 97°
2026-04-21 01:03 30.22345 100.74140 38965 ft 588 kts 97°
2026-04-21 01:04 30.21607 100.83549 38995 ft 587 kts 97°
2026-04-21 01:04 30.20969 100.92917 39072 ft 583 kts 97°
2026-04-21 01:05 30.20588 100.97537 38966 ft 585 kts 97°
2026-04-21 01:05 30.20167 101.02218 38950 ft 585 kts 98°
2026-04-21 01:05 30.19345 101.11583 38946 ft 586 kts 97°
2026-04-21 01:06 30.18577 101.20901 39012 ft 581 kts 97°
2026-04-21 01:06 30.17803 101.30232 38958 ft 585 kts 97°
2026-04-21 01:07 30.17026 101.39613 38967 ft 588 kts 97°
2026-04-21 01:07 30.16231 101.49042 38904 ft 589 kts 97°
2026-04-21 01:08 30.15401 101.58401 38976 ft 583 kts 98°
2026-04-21 01:08 30.14810 101.67749 38950 ft 585 kts 87°
2026-04-21 01:09 30.15916 101.77019 38979 ft 582 kts 74°
2026-04-21 01:09 30.18579 101.85688 38941 ft 573 kts 61°
2026-04-21 01:10 30.21804 101.94051 38928 ft 570 kts 61°
2026-04-21 01:10 30.25003 102.02484 38960 ft 576 kts 62°
2026-04-21 01:11 30.28146 102.10986 38926 ft 571 kts 62°
2026-04-21 01:11 30.31223 102.19402 38961 ft 568 kts 62°
2026-04-21 01:12 30.34363 102.27785 38932 ft 561 kts 62°
2026-04-21 01:12 30.37382 102.36202 38972 ft 573 kts 63°
2026-04-21 01:13 30.40427 102.44715 38931 ft 566 kts 63°
2026-04-21 01:13 30.41927 102.48875 38916 ft 554 kts 63°
2026-04-21 01:13 30.43408 102.52955 38849 ft 542 kts 62°
2026-04-21 01:14 30.44882 102.56958 39014 ft 543 kts 63°
2026-04-21 01:14 30.46358 102.61024 38967 ft 549 kts 63°
2026-04-21 01:14 30.49321 102.69255 38987 ft 557 kts 63°
2026-04-21 01:15 30.52291 102.77556 39006 ft 559 kts 63°
2026-04-21 01:15 30.55257 102.85873 39001 ft 558 kts 63°
2026-04-21 01:16 30.58221 102.94176 39012 ft 556 kts 63°
2026-04-21 01:16 30.61156 103.02408 39020 ft 557 kts 63°
2026-04-21 01:17 30.64000 103.10706 39062 ft 549 kts 64°
2026-04-21 01:17 30.66739 103.19043 39029 ft 559 kts 70°
2026-04-21 01:18 30.68065 103.28035 39042 ft 570 kts 86°
2026-04-21 01:18 30.67590 103.37226 39034 ft 570 kts 98°
2026-04-21 01:19 30.66603 103.46337 39038 ft 568 kts 97°
2026-04-21 01:19 30.65719 103.55443 39022 ft 567 kts 96°
2026-04-21 01:20 30.64886 103.64539 39031 ft 566 kts 97°
2026-04-21 01:20 30.63314 103.73455 39021 ft 563 kts 110°
2026-04-21 01:21 30.60818 103.81984 39037 ft 561 kts 111°
2026-04-21 01:21 30.58337 103.90569 39040 ft 561 kts 110°
2026-04-21 01:22 30.56025 103.99220 39047 ft 562 kts 107°
2026-04-21 01:22 30.54052 104.08002 39026 ft 563 kts 106°
2026-04-21 01:23 30.51459 104.16485 39006 ft 553 kts 127°
2026-04-21 01:23 30.49135 104.19962 39035 ft 541 kts 141°
2026-04-21 01:23 30.46319 104.22793 39031 ft 531 kts 153°
2026-04-21 01:24 30.43132 104.24813 39035 ft 517 kts 164°
2026-04-21 01:24 30.39845 104.26538 39037 ft 521 kts 164°
2026-04-21 01:24 30.33235 104.30114 39054 ft 528 kts 162°
2026-04-21 01:25 30.26591 104.33846 39042 ft 530 kts 162°
2026-04-21 01:25 30.20029 104.37562 39011 ft 521 kts 162°
2026-04-21 01:26 30.13511 104.41218 38998 ft 522 kts 164°
2026-04-21 01:26 30.06912 104.44906 39022 ft 531 kts 163°
2026-04-21 01:27 30.00238 104.48643 39029 ft 534 kts 163°
2026-04-21 01:27 29.93584 104.52372 39021 ft 536 kts 163°
2026-04-21 01:28 29.86884 104.56119 39022 ft 534 kts 163°
2026-04-21 01:28 29.80205 104.59849 39011 ft 533 kts 164°
2026-04-21 01:29 29.73536 104.63562 39020 ft 532 kts 165°
2026-04-21 01:29 29.68003 104.66638 39019 ft 531 kts 165°
2026-04-21 01:30 29.61346 104.70334 39007 ft 530 kts 165°
2026-04-21 01:30 29.54705 104.74018 38997 ft 530 kts 165°
2026-04-21 01:31 29.48059 104.77698 39018 ft 530 kts 165°
2026-04-21 01:31 29.41409 104.81375 39017 ft 531 kts 165°
2026-04-21 01:32 29.34738 104.85061 39022 ft 532 kts 165°
2026-04-21 01:32 29.28030 104.88606 39022 ft 529 kts 167°
2026-04-21 01:33 29.21264 104.91946 39022 ft 530 kts 167°
2026-04-21 01:33 29.14493 104.95336 39018 ft 532 kts 166°
2026-04-21 01:34 29.07705 104.98762 39024 ft 534 kts 166°
2026-04-21 01:34 29.00893 105.02188 39021 ft 535 kts 166°
2026-04-21 01:35 28.94074 105.05612 39007 ft 536 kts 166°
2026-04-21 01:35 28.87249 105.09047 39018 ft 536 kts 166°
2026-04-21 01:36 28.80421 105.12483 39026 ft 537 kts 166°
2026-04-21 01:36 28.73698 105.16180 39015 ft 543 kts 161°
2026-04-21 01:37 28.67030 105.20252 38988 ft 544 kts 160°
2026-04-21 01:37 28.60366 105.24335 39019 ft 543 kts 160°
2026-04-21 01:38 28.53702 105.28372 39023 ft 542 kts 161°
2026-04-21 01:38 28.47040 105.32380 39023 ft 542 kts 160°
2026-04-21 01:39 28.40378 105.36385 39017 ft 542 kts 160°
2026-04-21 01:39 28.33719 105.40387 39008 ft 540 kts 160°
2026-04-21 01:40 28.27081 105.44370 39020 ft 539 kts 160°
2026-04-21 01:40 28.20446 105.48346 39033 ft 539 kts 160°
2026-04-21 01:41 28.13818 105.52311 39028 ft 538 kts 160°
2026-04-21 01:41 28.07158 105.55936 39016 ft 527 kts 169°
2026-04-21 01:42 28.00222 105.58207 39014 ft 512 kts 178°
2026-04-21 01:42 27.93244 105.59318 39010 ft 505 kts 183°
2026-04-21 01:43 27.86283 105.60372 39035 ft 505 kts 182°
2026-04-21 01:43 27.79351 105.62249 39029 ft 522 kts 169°
2026-04-21 01:44 27.72653 105.65662 39029 ft 535 kts 158°
2026-04-21 01:44 27.66144 105.69787 39035 ft 536 kts 160°
2026-04-21 01:45 27.59470 105.73457 39027 ft 532 kts 163°
2026-04-21 01:45 27.52743 105.76953 39033 ft 532 kts 163°
2026-04-21 01:46 27.46031 105.80510 39035 ft 534 kts 162°
2026-04-21 01:46 27.39333 105.84123 39026 ft 534 kts 162°
2026-04-21 01:47 27.32669 105.87723 39016 ft 534 kts 162°
2026-04-21 01:47 27.25969 105.91329 39014 ft 533 kts 162°
2026-04-21 01:48 27.19282 105.94919 39032 ft 532 kts 162°
2026-04-21 01:48 27.12601 105.98502 39013 ft 531 kts 162°
2026-04-21 01:49 27.06094 106.02502 39017 ft 541 kts 149°
2026-04-21 01:49 27.00486 106.08226 39021 ft 552 kts 133°
2026-04-21 01:50 26.95843 106.15113 39019 ft 554 kts 129°
2026-04-21 01:50 26.91290 106.22081 39029 ft 554 kts 130°
2026-04-21 01:51 26.86674 106.28994 39022 ft 555 kts 130°
2026-04-21 01:51 26.82006 106.35879 39009 ft 555 kts 130°
2026-04-21 01:52 26.75013 106.46178 39018 ft 552 kts 130°
2026-04-21 01:53 26.70362 106.53011 39015 ft 551 kts 130°
2026-04-21 01:53 26.65723 106.59827 39003 ft 551 kts 130°
2026-04-21 01:54 26.61085 106.66634 39004 ft 550 kts 130°
2026-04-21 01:54 26.56454 106.73422 39003 ft 550 kts 130°
2026-04-21 01:55 26.51740 106.80134 39022 ft 548 kts 135°
2026-04-21 01:55 26.46435 106.86113 39020 ft 545 kts 140°
2026-04-21 01:56 26.40982 106.91984 39011 ft 545 kts 140°
2026-04-21 01:56 26.35575 106.97901 39010 ft 544 kts 139°
2026-04-21 01:57 26.30196 107.03825 39005 ft 543 kts 139°
2026-04-21 01:57 26.24827 107.09719 39017 ft 542 kts 139°
2026-04-21 01:58 26.19459 107.15607 39022 ft 541 kts 139°
2026-04-21 01:58 26.14095 107.21486 39023 ft 541 kts 139°
2026-04-21 01:59 26.08734 107.27356 39009 ft 540 kts 139°
2026-04-21 01:59 26.03381 107.33208 39030 ft 539 kts 139°